Lexington, KY

5:40 AM EDT on July 22, 2017 (GMT -0400)
Blue Grass

Weather History for KLEX - July, 2013

Change the Weather History Date:

Tuesday, July 23, 2013

  Actual Average Record
Temperature  
Mean Temperature 78 °F 76 °F  
Max Temperature 87 °F 86 °F 99 °F (1952)
Min Temperature 68 °F 66 °F 47 °F (1947)
Degree Days  
Heating Degree Days 0 0  
Month to date heating degree days 0 0  
Since 1 June heating degree days 0 11  
Since 1 July heating degree days 0 0  
Cooling Degree Days 13 11  
Month to date cooling degree days 267 253  
Year to date cooling degree days 689 602  
Since 1 June cooling degree days 536 495  
Growing Degree Days 28 (Base 50)    
Moisture  
Dew Point 71 °F    
Average Humidity 94    
Maximum Humidity 100    
Minimum Humidity 87    
Precipitation  
Precipitation 1.32 in 0.16 in 2.38 in (1959)
Month to date precipitation 8.89 3.47  
Year to date precipitation 38.29 27.24  
Snow  
Snow 0.00 in 0.00 in - ()
Month to date snowfall 0.0 0.0  
Since 1 June snowfall 0.0 0.0  
Since 1 July snowfall 0.0 0.0  
Snow Depth 0.00 in    
Sea Level Pressure  
Sea Level Pressure 29.84 in    
Wind  
Wind Speed 8 mph (SW)    
Max Wind Speed 37 mph    
Max Gust Speed 48 mph    
Visibility 6 miles    
Events Rain , Thunderstorm    
T = Trace of Precipitation, MM = Missing Value Source: NWS Daily Summary

Daily Weather History Graph

Daily Weather History Graph

Search for Another Location

Airport or City:

Trip Planner

Search our weather history database for the weather conditions in past years. The results will help you decide how hot, cold, wet, or windy it might be!

Date:

Astronomy

Jul. 23, 2013 Rise Set
Actual Time 6:34 AM EDT 8:55 PM EDT
Civil Twilight 6:04 AM EDT 9:25 PM EDT
Nautical Twilight 5:27 AM EDT 10:02 PM EDT
Astronomical Twilight 4:46 AM EDT 10:42 PM EDT
Moon 9:25 PM EDT (7/23) 7:39 AM EDT (7/23)
Length of Visible Light 15h 21m
Length of Day
14h 21m
Full, 99% of the Moon is Illuminated
Jul 23
Full
Jul 29
Last Quarter
Aug 6
New
Aug 14
First Quarter
Aug 20
Full

Hourly Weather History & Observations

Time (EDT) Temp. Heat Index Dew Point Humidity Pressure Visibility Wind Dir Wind Speed Gust Speed Precip Events Conditions
12:28 AM 73.0 °F - 71.1 °F 93% 29.88 in 7.0 mi WSW 5.8 mph - N/A   Mostly Cloudy
12:54 AM 73.0 °F - 71.1 °F 93% 29.85 in 6.0 mi SW 6.9 mph - N/A   Scattered Clouds
1:54 AM 73.0 °F - 70.0 °F 90% 29.85 in 7.0 mi WSW 6.9 mph - N/A   Partly Cloudy
2:54 AM 73.0 °F - 70.0 °F 90% 29.87 in 8.0 mi West 6.9 mph - N/A   Overcast
3:54 AM 71.1 °F - 69.1 °F 93% 29.86 in 7.0 mi WSW 5.8 mph - 0.00 in   Clear
4:54 AM 71.1 °F - 69.1 °F 93% 29.86 in 4.0 mi WSW 4.6 mph - N/A   Partly Cloudy
5:19 AM 71.1 °F - 69.1 °F 93% 29.88 in 4.0 mi WSW 5.8 mph - N/A   Mostly Cloudy
5:31 AM 71.1 °F - 69.1 °F 93% 29.88 in 4.0 mi SW 5.8 mph - N/A   Scattered Clouds
5:43 AM 71.1 °F - 70.0 °F 96% 29.88 in 3.0 mi WSW 9.2 mph - N/A   Mostly Cloudy
5:54 AM 72.0 °F - 70.0 °F 93% 29.86 in 2.5 mi SW 8.1 mph - N/A   Mostly Cloudy
6:10 AM 72.0 °F - 70.0 °F 93% 29.89 in 1.8 mi WSW 10.4 mph - N/A   Overcast
6:54 AM 72.0 °F - 71.1 °F 97% 29.86 in 1.5 mi WSW 10.4 mph - N/A   Overcast
7:45 AM 73.9 °F - 72.0 °F 93% 29.87 in 2.0 mi WSW 5.8 mph - N/A   Overcast
7:52 AM 73.4 °F - 71.6 °F 94% 29.87 in 2.5 mi WSW 6.9 mph - N/A   Overcast
7:54 AM 73.9 °F - 72.0 °F 93% 29.84 in 2.5 mi WSW 6.9 mph - N/A   Overcast
8:13 AM 75.0 °F - 72.0 °F 90% 29.86 in 3.0 mi SW 4.6 mph - N/A   Overcast
8:54 AM 75.0 °F - 72.0 °F 90% 29.84 in 3.0 mi SSW 3.5 mph - N/A   Overcast
9:37 AM 77.0 °F - 73.0 °F 88% 29.87 in 5.0 mi SW 8.1 mph - N/A   Overcast
9:54 AM 77.0 °F - 73.0 °F 88% 29.85 in 5.0 mi WSW 10.4 mph - N/A   Overcast
10:09 AM 78.1 °F - 73.0 °F 84% 29.87 in 6.0 mi SW 9.2 mph - N/A   Haze
10:20 AM 79.0 °F - 73.0 °F 82% 29.88 in 7.0 mi SW 11.5 mph - N/A   Mostly Cloudy
10:54 AM 79.0 °F - 72.0 °F 79% 29.86 in 7.0 mi West 11.5 mph - N/A   Mostly Cloudy
11:54 AM 82.0 °F 86.7 °F 72.0 °F 71% 29.86 in 10.0 mi WSW 10.4 mph - N/A   Mostly Cloudy
12:09 PM 82.0 °F 86.7 °F 72.0 °F 71% 29.89 in 10.0 mi WSW 9.2 mph - N/A   Partly Cloudy
12:54 PM 84.0 °F 89.6 °F 72.0 °F 67% 29.85 in 10.0 mi WSW 10.4 mph - N/A   Scattered Clouds
1:54 PM 84.0 °F 89.0 °F 71.1 °F 65% 29.84 in 10.0 mi WSW 8.1 mph - N/A   Scattered Clouds
2:54 PM 84.0 °F 89.0 °F 71.1 °F 65% 29.81 in 10.0 mi SW 8.1 mph - N/A   Scattered Clouds
3:54 PM 86.0 °F 92.2 °F 72.0 °F 63% 29.80 in 10.0 mi SSW 10.4 mph - N/A   Mostly Cloudy
4:54 PM 86.0 °F 92.2 °F 72.0 °F 63% 29.78 in 10.0 mi WSW 10.4 mph - N/A   Scattered Clouds
5:54 PM 84.9 °F 90.7 °F 72.0 °F 65% 29.78 in 10.0 mi WSW 10.4 mph - N/A   Clear
6:54 PM 84.9 °F 90.7 °F 72.0 °F 65% 29.77 in 10.0 mi WSW 8.1 mph - N/A   Clear
7:54 PM 82.0 °F 87.9 °F 73.9 °F 76% 29.77 in 10.0 mi SW 5.8 mph - 0.00 in Rain Light Rain
8:54 PM 80.1 °F 84.2 °F 73.0 °F 79% 29.76 in 10.0 mi SSE 4.6 mph - 0.00 in   Clear
9:42 PM 79.0 °F - 73.0 °F 82% 29.81 in 7.0 mi SW 8.1 mph - 0.00 in Rain , Thunderstorm Light Rain
9:54 PM 77.0 °F - 73.9 °F 90% 29.79 in 2.5 mi WSW 5.8 mph - 0.08 in Rain , Thunderstorm Heavy Rain
9:59 PM 75.9 °F - 73.9 °F 94% 29.83 in 1.5 mi Variable 3.5 mph - 0.06 in Rain , Thunderstorm Heavy Thunderstorms and Rain
10:07 PM 77.0 °F - 73.9 °F 90% 29.82 in 3.0 mi ESE 4.6 mph - 0.13 in Rain , Thunderstorm Light Thunderstorms and Rain
10:54 PM 75.0 °F - 70.0 °F 84% 29.81 in 8.0 mi SE 4.6 mph - 0.17 in Rain , Thunderstorm Light Thunderstorms and Rain
11:07 PM 73.0 °F - 64.0 °F 73% 29.88 in 1.8 mi North 23.0 mph 48.3 mph 0.02 in Rain , Thunderstorm Heavy Thunderstorms and Rain
11:23 PM 69.1 °F - 66.0 °F 90% 29.88 in 0.8 mi North 4.6 mph - 0.64 in Rain , Thunderstorm Heavy Thunderstorms and Rain
11:34 PM 68.0 °F - 66.0 °F 93% 29.87 in 1.2 mi East 6.9 mph - 1.07 in Rain , Thunderstorm Light Thunderstorms and Rain
11:36 PM 68.0 °F - 66.0 °F 93% 29.87 in 3.0 mi SE 11.5 mph - 1.07 in Rain , Thunderstorm Light Thunderstorms and Rain
11:50 PM 69.8 °F - 66.2 °F 88% 29.85 in 10.0 mi SSE 8.1 mph - 1.07 in Rain , Thunderstorm Light Thunderstorms and Rain
11:54 PM 69.1 °F - 66.9 °F 93% 29.82 in 10.0 mi SSE 9.2 mph - 1.07 in Rain , Thunderstorm Light Rain